[[{"header":{"parameterUnit":"m.s-1","parameterCategory":1,"la1":30.2991,"la2":30.254,"lo1":-89.0895,"lo2":-89.0444,"dy":0.0017,"dx":0.0017,"nx":28,"ny":28,"refTime":"2024-09-25T21:00:00:Z","depth":0,"parameterNumber":2,"parameterNumberName":"U-component_of_WINDS"},"data":[0,0,0,0,0,0,0,0,0,0,0,0,0,0,0,0,0,0,0,0,0,0,0,0,0,0,0,0,0,0,0,0,0,0,0,0,0,0,0,0,0,0,0,0,0,0,0,0,0,0,0,0,0,0,0,0,0,0,3.8149,3.8153,0,3.8494,3.8498,3.8501,3.8618,3.8617,3.8615,3.8614,3.8944,3.8954,3.8964,0,0,0,0,0,0,0,0,0,0,0,0,0,3.757,3.758,3.8149,3.8153,3.8158,3.8493,3.8498,3.8502,3.8618,3.8617,3.8615,3.8614,3.8941,3.8952,3.8965,0,0,0,0,0,0,0,0,0,0,0,0,0,3.7858,3.7584,3.8148,3.8257,3.827,3.8492,3.8498,3.8504,3.8619,3.8617,3.8615,3.8613,3.8937,3.8951,3.8966,3.9099,0,0,3.9012,3.9019,0,0,0,0,0,0,0,0,3.7842,3.7879,3.8236,3.8249,3.8265,3.8512,3.8415,3.8702,3.8619,3.8485,3.8614,3.8612,3.88,3.8826,3.8895,3.9114,3.9129,3.9013,3.9023,3.9029,3.9033,0,0,0,0,0,0,0,3.7822,3.7865,3.8285,3.8241,3.8259,3.8281,3.832,3.847,3.8649,3.8497,3.8506,3.8547,3.8807,3.888,3.8903,3.9133,3.9013,3.9026,3.9036,3.9042,3.9478,3.9481,0,0,0,0,0,0,3.7787,3.7848,3.8274,3.8295,3.8045,3.8293,3.8336,3.8434,3.8648,3.8679,3.8548,3.8551,3.8855,3.8885,3.8915,3.9085,3.9029,3.9043,3.9052,3.9476,3.9479,3.9481,0,0,0,0,0,0,3.7774,3.7824,3.826,3.8074,3.8132,3.8305,3.8414,3.8442,3.8515,3.8687,3.8717,3.8591,3.8855,3.8894,3.9054,3.9098,3.905,3.9063,3.9472,3.9476,3.948,3.9425,0,0,0,0,0,0,3.7757,3.7818,3.7876,3.8075,3.8141,3.8399,3.8417,3.845,3.8543,3.855,3.8735,3.8763,3.8856,3.9031,3.9069,3.9118,3.9075,3.9469,3.9474,3.9479,3.9423,3.9426,3.9429,0,0,0,0,0,3.7736,3.7841,3.7878,3.7929,3.8218,3.8402,3.8439,3.855,3.8546,3.8602,3.8712,3.8757,3.9087,3.9046,3.909,3.9144,3.9467,3.9473,3.9478,3.9422,3.9426,3.9429,0,0,0,0,0,0,3.7634,3.7869,3.7912,3.8087,3.8225,3.8421,3.8495,3.855,3.8685,3.8685,3.881,3.8851,3.9001,3.9088,3.9038,3.9283,3.9279,3.9294,3.9221,3.9226,3.9228,3.9203,3.9088,0,0,0,0,0,3.7633,3.777,3.7966,3.81,3.8168,3.8319,3.8403,3.8478,3.8622,3.8678,3.8801,3.8932,3.9066,3.9151,3.9283,3.9437,3.9477,3.9495,3.9498,3.9499,3.9509,3.9596,3.9606,3.95,3.95,3.95,0,0,3.763,3.7776,3.7853,3.8084,3.8199,3.8332,3.8367,3.8505,3.8603,3.8697,3.8858,3.8952,3.9106,3.9264,3.934,3.9342,3.9548,3.9507,3.9506,3.9517,3.9603,3.9613,3.9621,3.9504,3.9504,3.9503,0,0,3.7693,3.7819,3.7946,3.8062,3.8239,3.834,3.837,3.856,3.8628,3.8793,3.8866,3.898,3.9208,3.9316,3.94,3.9506,3.9551,3.9544,3.9557,3.964,3.9648,3.9656,3.9692,3.9704,3.9554,3.9554,3.9554,0,3.7665,3.7876,3.8001,3.8139,3.8236,3.8336,3.8461,3.8565,3.8772,3.8834,3.8835,3.9125,3.9236,3.942,3.9446,3.9512,3.9546,3.9523,3.9639,3.9648,3.9657,3.9692,3.9706,3.9552,3.9553,3.9553,3.9553,0,3.7832,3.7976,3.8056,3.8264,3.837,3.8499,3.8639,3.873,3.8795,3.8893,3.9057,3.9195,3.9357,3.9406,3.9468,3.9599,3.9595,3.9616,3.9613,3.9663,3.9698,3.9713,3.955,3.955,3.9551,3.9551,0,0,3.7839,3.8118,3.8144,3.824,3.8443,3.8553,3.8685,3.8852,3.8927,3.9065,3.9177,3.9368,3.9391,3.9486,3.956,3.9633,3.9706,3.9645,3.9651,3.9651,3.9856,3.9839,3.9853,3.9739,3.9742,3.9744,3.9843,0,3.7927,3.8178,3.8295,3.849,3.8623,3.872,3.8834,3.8967,3.9062,3.9183,3.9284,3.9419,3.9438,3.9497,3.9574,3.9681,3.9749,3.9676,3.9837,3.9841,3.9795,3.9872,3.9854,3.9941,3.9858,3.986,3.9862,0,3.8065,3.8213,3.8424,3.8613,3.8673,3.8775,3.8937,3.9054,3.9204,3.9268,3.9377,3.9449,3.9585,3.9575,3.9762,3.971,3.9782,3.9844,3.985,3.9868,3.9854,3.989,3.9971,3.9983,3.9885,3.9883,3.9882,0,3.8047,3.8298,3.8458,3.8536,3.8761,3.883,3.8925,3.9075,3.9168,3.9307,3.9367,3.9516,3.9597,3.9708,3.9817,3.98,3.9992,3.9991,4.0044,4.0041,4.0079,4.0075,4.0171,4.0127,4.0127,4.0127,4.0127,0,3.8134,3.8258,3.8454,3.8551,3.8692,3.8823,3.8956,3.9057,3.919,3.9304,3.9393,3.9496,3.9635,3.9753,3.9838,3.9979,4.0014,4.0065,4.0086,4.0057,4.005,4.0105,4.0101,4.0131,4.013,4.0129,4.0128,0,3.8137,3.8275,3.8454,3.8655,3.8707,3.8802,3.897,3.9064,3.9165,3.9308,3.9348,3.9503,3.9648,3.9769,3.9956,4.0013,4.0158,4.0183,4.011,4.0121,4.0167,4.016,4.03,4.0324,4.0264,4.0265,4.0265,0,3.8183,3.8283,3.8496,3.8583,3.868,3.8817,3.8915,3.9045,3.9141,3.9322,3.9394,3.9547,3.9676,3.9901,4.0026,4.0169,4.0197,4.0236,4.0218,4.0186,4.0196,4.0189,4.0198,4.0236,4.0236,4.0237,4.0237,0,3.8249,3.8313,3.8455,3.862,3.8736,3.887,3.9005,3.9069,3.9223,3.9325,3.948,3.9581,3.9776,3.9925,4.0082,4.0172,4.0228,4.0242,4.0262,4.0232,4.0186,4.0211,4.0112,4.0237,4.0237,4.0237,4.0237,4.0237,3.8276,3.8369,3.8535,3.8689,3.8806,3.8931,3.9032,3.9148,3.9281,3.9456,3.9523,3.9679,3.9825,4.0044,4.0134,4.0253,4.026,4.0288,4.0295,4.03,4.0296,4.0169,4.0282,4.0282,4.0282,4.0282,4.0282,0,3.8345,3.8458,3.8599,3.8791,3.891,3.8962,3.9115,3.9209,3.9349,3.9484,3.9613,3.9787,3.9933,4.007,4.0221,4.0289,4.0319,4.0324,4.0319,4.0339,4.0282,4.025,4.0298,4.0298,4.0298,4.0298,4.0298,4.0298,3.8396,3.8557,3.864,3.8858,3.8968,3.9129,3.9212,3.9325,3.9435,3.963,3.9754,3.9846,3.9981,4.0143,4.0276,4.0312,4.0362,4.0361,4.0403,4.0346,4.0343,4.034,4.031,4.0371,4.0371,4.045,4.0451,4.0452]},{"header":{"parameterUnit":"m.s-1","parameterCategory":1,"la1":30.2991,"la2":30.254,"lo1":-89.0895,"lo2":-89.0444,"dy":0.0017,"dx":0.0017,"nx":28,"ny":28,"refTime":"2024-09-25T21:00:00:Z","depth":0,"parameterNumber":3,"parameterNumberName":"V-component_of_WINDS"},"data":[0,0,0,0,0,0,0,0,0,0,0,0,0,0,0,0,0,0,0,0,0,0,0,0,0,0,0,0,0,0,0,0,0,0,0,0,0,0,0,0,0,0,0,0,0,0,0,0,0,0,0,0,0,0,0,0,0,0,-4.952,-4.9515,0,-4.8977,-4.8971,-4.8965,-4.8613,-4.8611,-4.8609,-4.8607,-4.8023,-4.801,-4.7997,0,0,0,0,0,0,0,0,0,0,0,0,0,-5.0226,-5.0215,-4.9521,-4.9514,-4.9507,-4.8978,-4.8971,-4.8963,-4.8613,-4.8611,-4.8608,-4.8606,-4.8028,-4.8012,-4.7995,0,0,0,0,0,0,0,0,0,0,0,0,0,-4.9825,-5.0212,-4.9522,-4.927,-4.9242,-4.898,-4.897,-4.8961,-4.8614,-4.8611,-4.8607,-4.8604,-4.8033,-4.8013,-4.7993,-4.7931,0,0,-4.7931,-4.7922,0,0,0,0,0,0,0,0,-4.9848,-4.9799,-4.9313,-4.9287,-4.9255,-4.886,-4.9005,-4.8615,-4.8614,-4.8851,-4.8606,-4.8603,-4.8302,-4.826,-4.8164,-4.7904,-4.7879,-4.7929,-4.7917,-4.7908,-4.7902,0,0,0,0,0,0,0,-4.9876,-4.982,-4.9305,-4.9307,-4.9271,-4.9174,-4.9113,-4.8929,-4.86,-4.883,-4.8804,-4.8746,-4.8285,-4.8184,-4.8148,-4.787,-4.793,-4.7912,-4.7899,-4.7891,-4.7522,-4.7525,0,0,0,0,0,0,-4.9948,-4.9846,-4.9322,-4.9288,-4.9551,-4.9164,-4.9096,-4.8989,-4.8602,-4.854,-4.8749,-4.8731,-4.8221,-4.8172,-4.8126,-4.8022,-4.7908,-4.7889,-4.7878,-4.752,-4.7523,-4.7526,0,0,0,0,0,0,-4.9965,-4.9905,-4.9344,-4.956,-4.9481,-4.9155,-4.9038,-4.898,-4.8879,-4.854,-4.8477,-4.8708,-4.8216,-4.8154,-4.7982,-4.7997,-4.788,-4.7862,-4.7517,-4.7521,-4.7524,-4.782,0,0,0,0,0,0,-4.9986,-4.9913,-4.9893,-4.9563,-4.9471,-4.922,-4.9039,-4.8972,-4.8848,-4.882,-4.8485,-4.8426,-4.8209,-4.8015,-4.7962,-4.7967,-4.7846,-4.7514,-4.7519,-4.7523,-4.7808,-4.7834,-4.7856,0,0,0,0,0,-5.0013,-4.9994,-4.9894,-4.9833,-4.9442,-4.9222,-4.9168,-4.8926,-4.8852,-4.8823,-4.8605,-4.8437,-4.8006,-4.8,-4.7938,-4.7937,-4.7512,-4.7518,-4.7523,-4.7797,-4.7829,-4.7855,0,0,0,0,0,0,-5.0326,-4.9946,-4.9831,-4.9707,-4.9501,-4.9163,-4.9121,-4.8968,-4.8772,-4.8752,-4.8452,-4.8379,-4.8235,-4.8068,-4.8069,-4.7852,-4.7738,-4.7732,-4.7968,-4.7995,-4.8019,-4.806,-4.7829,0,0,0,0,0,-5.0383,-5.0245,-4.9916,-4.9837,-4.974,-4.945,-4.9345,-4.9177,-4.8946,-4.8855,-4.8623,-4.8399,-4.8211,-4.8094,-4.7903,-4.7782,-4.7699,-4.775,-4.7775,-4.7796,-4.7792,-4.7708,-4.7725,-4.7543,-4.7543,-4.7543,0,0,-5.0493,-5.0269,-5.0199,-4.9894,-4.9714,-4.9569,-4.9378,-4.9233,-4.9119,-4.8829,-4.8654,-4.8477,-4.8205,-4.8058,-4.798,-4.7914,-4.7824,-4.7803,-4.7823,-4.7806,-4.7716,-4.7733,-4.7749,-4.7547,-4.7546,-4.7546,0,0,-5.0622,-5.0442,-5.0355,-5.018,-4.9913,-4.9719,-4.9699,-4.9384,-4.9257,-4.9079,-4.8857,-4.8711,-4.8398,-4.8212,-4.8076,-4.8132,-4.7967,-4.8078,-4.8202,-4.8124,-4.8138,-4.8149,-4.8163,-4.8173,-4.8076,-4.8076,-4.8077,0,-5.0791,-5.0574,-5.0326,-5.0195,-5.0063,-4.9803,-4.9706,-4.9545,-4.9226,-4.9137,-4.9069,-4.8667,-4.8466,-4.8268,-4.8283,-4.8183,-4.8142,-4.8113,-4.8158,-4.8166,-4.8173,-4.8182,-4.8189,-4.8091,-4.809,-4.8088,-4.8087,0,-5.0792,-5.0644,-5.0603,-5.0311,-5.0175,-5.0062,-4.9788,-4.9677,-4.9521,-4.9332,-4.9148,-4.8898,-4.865,-4.859,-4.8433,-4.8368,-4.8334,-4.8217,-4.8095,-4.821,-4.8213,-4.8215,-4.8113,-4.8107,-4.8103,-4.8099,0,0,-5.1101,-5.0676,-5.0664,-5.0526,-5.0212,-5.0087,-4.9957,-4.9723,-4.9632,-4.9419,-4.9296,-4.9036,-4.8925,-4.8771,-4.8589,-4.8522,-4.8575,-4.8409,-4.8398,-4.8445,-4.8479,-4.8568,-4.8577,-4.8465,-4.8465,-4.8465,-4.85,0,-5.1179,-5.0945,-5.0717,-5.0559,-5.0414,-5.0163,-5.0048,-4.9837,-4.9657,-4.9498,-4.9293,-4.9112,-4.8982,-4.8887,-4.8809,-4.8586,-4.8577,-4.858,-4.8338,-4.8333,-4.8412,-4.8579,-4.8673,-4.8719,-4.8501,-4.8501,-4.8501,0,-5.1238,-5.1046,-5.0878,-5.0574,-5.0504,-5.0408,-5.0171,-5.0028,-4.9779,-4.965,-4.9481,-4.929,-4.913,-4.9029,-4.8799,-4.8807,-4.8693,-4.8568,-4.8563,-4.8528,-4.8422,-4.8544,-4.8728,-4.8734,-4.8502,-4.8501,-4.8501,0,-5.1476,-5.1173,-5.1032,-5.0922,-5.0566,-5.0502,-5.0349,-5.0099,-4.9971,-4.9761,-4.9673,-4.9446,-4.932,-4.9143,-4.8891,-4.8842,-4.8685,-4.8564,-4.8566,-4.8573,-4.8541,-4.8546,-4.8706,-4.8478,-4.8477,-4.8477,-4.8477,0,-5.1584,-5.1489,-5.1134,-5.1047,-5.0929,-5.0664,-5.0551,-5.0374,-5.0153,-5.0019,-4.9785,-4.9662,-4.934,-4.9175,-4.8976,-4.8812,-4.8757,-4.8642,-4.8589,-4.8661,-4.8675,-4.8579,-4.8567,-4.8479,-4.8478,-4.8478,-4.8478,0,-5.1827,-5.1588,-5.1416,-5.1095,-5.1011,-5.0939,-5.0657,-5.0557,-5.0364,-5.0196,-5.0141,-4.9833,-4.9627,-4.936,-4.9067,-4.8932,-4.8789,-4.8711,-4.8877,-4.8845,-4.886,-4.8861,-4.896,-4.8957,-4.8739,-4.8741,-4.8743,0,-5.1911,-5.1833,-5.1506,-5.1404,-5.1261,-5.1099,-5.0969,-5.0702,-5.0574,-5.0285,-5.0217,-4.9996,-4.9803,-4.9483,-4.9226,-4.8999,-4.8909,-4.896,-4.8873,-4.8946,-4.8903,-4.891,-4.8897,-4.8981,-4.8985,-4.8988,-4.8991,0,-5.2082,-5.1968,-5.1796,-5.1581,-5.1436,-5.1251,-5.1054,-5.0981,-5.067,-5.0537,-5.0329,-5.0181,-4.9884,-4.9663,-4.9403,-4.9231,-4.9055,-4.9021,-4.9008,-4.9078,-4.9176,-4.9118,-4.8932,-4.9019,-4.9016,-4.9014,-4.9012,-4.9011,-5.2243,-5.2161,-5.1919,-5.1732,-5.1559,-5.1381,-5.1271,-5.1066,-5.089,-5.0635,-5.0485,-5.028,-5.0024,-4.9658,-4.9495,-4.9322,-4.9256,-4.9239,-4.9233,-4.9232,-4.9253,-4.9209,-4.9274,-4.9273,-4.9271,-4.927,-4.927,0,-5.2398,-5.2231,-5.2063,-5.18,-5.1652,-5.1511,-5.1285,-5.1167,-5.0993,-5.0776,-5.0593,-5.0349,-5.0133,-4.9861,-4.9623,-4.9537,-4.945,-4.9482,-4.9483,-4.9445,-4.9329,-4.9362,-4.9557,-4.9557,-4.9557,-4.9557,-4.9557,-4.9557,-5.2461,-5.2314,-5.217,-5.1929,-5.1757,-5.1563,-5.1446,-5.1276,-5.1101,-5.0843,-5.0666,-5.0494,-5.0249,-4.9992,-4.9784,-4.9707,-4.9628,-4.9685,-4.9584,-4.948,-4.9454,-4.943,-4.9459,-4.9671,-4.9671,-4.9713,-4.9714,-4.9714]}]]